Weather in Ventspils

Latvia     57°23′47″N   21°34′01″E
temp.,
°C
wind,
m/s
gust,
m/s
humid.,
%
clouds,
%
prec.,
mm/h
press.,
hPa
HPBL,
m
27 july, tue
tue2700:00+22e61065100 0.0 1015137
03:00+21ese6968100 0.0 1015181
06:00+21ese6106989 0.0 1014192
09:00+22ese477099 0.3 1013242
12:00+25se6861100 0.0 1012130
15:00+22ese71172100 0.0 1011505
18:00+21e5786100 1.1 1009395
21:00+20ese569359 5.9 1008280
28 july, wed
wed2800:00+21sw568999 0.1 1008373
03:00+21wsw798842 0.1 1008531
06:00+21sw8108584 0.0 1008591
09:00+21sw79854 0.0 1008591
12:00+21sw810805 0.3 1008451
15:00+21sw911835 0.6 1009700
18:00+21sw911825 0.0 1009682
21:00+21sw81080100 0.0 1008558
29 july, thu
thu2900:00+20sw91180100 0.7 1008651
03:00+20sw91077100 0.8 1007789
06:00+20wsw910792 0.1 1007869
09:00+20wsw911785 0.6 1006921
12:00+20sw911775 1.6 1006903
15:00+21sw1012746 2.8 10061014
18:00+20sw1213735 0.0 10051117
21:00+20sw1215745 0.4 10041170
30 july, fri
fri3000:00+20sw1316679 0.1 10031526
03:00+19sw1315663 0.3 10031644
06:00+19sw14156590 0.3 10021729
09:00+18sw14167126 1.6 10011563
12:00+19sw15186942 0.8 10001612
15:00+19sw16197422 2.2 10001582
18:00+19sw1821795 0.8 9981481
21:00+19wsw172085100 2.9 9971456
31 july, sat
sat3100:00+19wsw16188348 2.1 9961389
03:00+20w13157954 4.4 9961119
06:00+19w111279100 1.4 9971167
09:00+19wsw111275100 4.8 9971271
12:00+19wsw111278100 1.7 9981144
15:00+20wsw11127435 3.6 9991228
18:00+20wsw10117460 1.4 10001205
21:00+20wsw10117654 2.6 9991027